Home   Weather   Columbus   Past weeks
Flag for Canada

Past Weather in Columbus, Ontario, Canada — Yesterday and Last 2 Weeks

Now
46 °F

Partly sunny.


Feels Like: 39 °F
Forecast: N/A
Wind: 18 mph from Northwest

Location: Oshawa

Current Time: Oct 17, 2019 at 7:11:26 pm

Latest Report: Oct 17, 2019 at 6:15 pm


Visibility: 9 mi

Pressure: 29.69 "Hg

Humidity: 76%

Dew Point: 39 °F

Location of ColumbusLocation

Past Weather in Columbus — Graph

°F

Columbus Temperature Yesterday

Maximum temperature yesterday: 55 °F (at 6:15 am)
Minimum temperature yesterday: 46 °F (at 11:00 pm)
Average temperature yesterday: 51 °F

High & Low Weather Summary for the Past Weeks

 TemperatureHumidityPressure
High66 °F (Oct 6, 5:00 pm)100% (Oct 3, 6:40 pm)30.45 "Hg (Oct 3, 6:40 pm)
Low30 °F (Oct 15, 4:00 am)32% (Oct 11, 5:00 pm)29.41 "Hg (Oct 17, 4:10 am)
Average51 °F78%30.02 "Hg
* Reported Oct 2 6:00 pm — Oct 17 6:15 pm, Columbus. Weather by CustomWeather, © 2019

Note: Actual official high and low records may vary slightly from our data, if they occured in-between our weather recording intervals... More about our weather records

Advertising

Columbus Weather History for the Previous 24 Hours

Scroll right to see more
 ConditionsComfort  
Time TempWeatherWind HumidityBarometerVisibility
6:15 pm
Thu, Oct 17
46 °FPartly sunny.18 mph76%29.69 "Hg9 mi
5:46 pm46 °FMore clouds than sun.22 mph76%29.67 "Hg9 mi
5:17 pm46 °FOvercast.29 mph76%29.66 "Hg9 mi
4:00 pm48 °FOvercast.25 mph71%29.63 "Hg9 mi
3:00 pm46 °FMostly cloudy.20 mph76%29.62 "Hg9 mi
2:00 pm48 °FOvercast.20 mph76%29.60 "Hg9 mi
1:00 pm46 °FOvercast.18 mph82%29.59 "Hg9 mi
12:00 pm45 °FOvercast.20 mph87%29.58 "Hg9 mi
10:00 am45 °FOvercast.23 mph87%29.51 "Hg9 mi
9:33 am43 °FOvercast.21 mph93%29.51 "Hg9 mi
9:12 am43 °FLight rain. Overcast.15 mph93%29.51 "Hg9 mi
9:00 am43 °FOvercast.22 mph93%29.50 "Hg9 mi
8:36 am43 °FOvercast.18 mph93%29.49 "Hg9 mi
8:00 am43 °FLight rain. Overcast.22 mph93%29.47 "Hg9 mi
7:59 am43 °FLight rain. Overcast.21 mph93%29.47 "Hg9 mi
7:00 am43 °FLight rain. Overcast.17 mph93%29.46 "Hg9 mi
6:47 am43 °FLight rain. Mostly cloudy.21 mph93%29.46 "Hg9 mi
6:00 am45 °FOvercast.21 mph93%29.44 "Hg9 mi
5:00 am48 °FOvercast.20 mph94%29.43 "Hg9 mi
4:16 am46 °FMostly cloudy.15 mph100%29.41 "Hg9 mi
4:10 am46 °FOvercast.13 mph93%29.41 "Hg9 mi
3:21 am46 °FLight rain. Mostly cloudy.8 mph93%29.44 "Hg9 mi
3:00 am45 °FMostly cloudy.9 mph100%29.44 "Hg9 mi
2:00 am43 °FPassing clouds.6 mph93%29.44 "Hg9 mi
1:00 am43 °FPassing clouds.5 mph100%29.44 "Hg9 mi
12:00 am46 °FOvercast.3 mph93%29.44 "Hg9 mi
11:00 pm
Wed, Oct 16
46 °FOvercast.6 mph93%29.46 "Hg9 mi
10:00 pm48 °FOvercast.2 mph87%29.47 "Hg9 mi
9:00 pm48 °FOvercast.2 mph94%29.49 "Hg9 mi
8:00 pm48 °FOvercast.3 mph94%29.49 "Hg9 mi
7:26 pm50 °FMostly cloudy.3 mph88%29.49 "Hg9 mi
7:00 pm50 °FLight rain. Mostly cloudy.3 mph88%29.49 "Hg9 mi
Weather by CustomWeather, © 2019

See weather overview